This is the latest recevied weather packets stored in our database for station/object IU0SZS-10. If no packets are shown the sender has not sent any weather packets the latest 10 day(s).
| Time | Temp. | Humidity | Pressure | Rain* | Wind** | Luminosity | Snow |
|---|---|---|---|---|---|---|---|
| 1777830335 | 18.33° C | 30% | 918.6 hPa | - | - | - | - |
| 1777830302 | 18.33° C | 30% | 918.6 hPa | - | - | - | - |
| 1777829435 | 19.44° C | 29% | 918.4 hPa | - | - | - | - |
| 1777829402 | 19.44° C | 29% | 918.4 hPa | - | - | - | - |
| 1777828502 | 20.56° C | 28% | 918.6 hPa | - | - | - | - |
| 1777827633 | 21.11° C | 26% | 918.6 hPa | - | - | - | - |
| 1777827601 | 21.11° C | 26% | 918.6 hPa | - | - | - | - |
| 1777826701 | 21.11° C | 28% | 918.5 hPa | - | - | - | - |
| 1777825801 | 21.11° C | 26% | 918.7 hPa | - | - | - | - |
| 1777824901 | 21.11° C | 23% | 918.7 hPa | - | - | - | - |
| 1777824001 | 21.67° C | 26% | 918.8 hPa | - | - | - | - |
| 1777823101 | 21.67° C | 28% | 919 hPa | - | - | - | - |
| 1777822201 | 21.11° C | 30% | 919.1 hPa | - | - | - | - |
| 1777821300 | 21.11° C | 28% | 919.3 hPa | - | - | - | - |
| 1777820400 | 21.11° C | 29% | 919.4 hPa | - | - | - | - |
| 1777819500 | 21.67° C | 26% | 919.3 hPa | - | - | - | - |
| 1777818600 | 21.11° C | 30% | 919.5 hPa | - | - | - | - |
| 1777817700 | 21.11° C | 27% | 919.6 hPa | - | - | - | - |
| 1777816800 | 21.11° C | 27% | 919.7 hPa | - | - | - | - |
| 1777815899 | 21.67° C | 26% | 919.8 hPa | - | - | - | - |
| 1777815085 | 20.56° C | 25% | 919.8 hPa | - | - | - | - |
| 1777814999 | 20.56° C | 25% | 919.8 hPa | - | - | - | - |
| 1777814099 | 21.11° C | 28% | 919.8 hPa | - | - | - | - |
| 1777813232 | 20° C | 33% | 920 hPa | - | - | - | - |
| 1777813199 | 20° C | 33% | 920 hPa | - | - | - | - |
* Rain since midnight (hover to see other rain measurements)
** Current wind speed in m/s (hover to see current wind gust speed)